Home   Weather   Montpelier   Past weeks

Flag for USA Past Weather in Montpelier, Vermont, USA — Yesterday and Last 2 Weeks

Now
71 °F

Sunny.


Feels Like: 77 °F
Forecast: 49 / 75 °F
Wind: 13 mph from Northwest

Location: Knapp State Airport

Current Time: Aug 17, 2017 at 1:56:07 pm

Latest Report: Aug 17, 2017 at 12:51 pm


Visibility: 10 mi

Pressure: 30.09 "Hg

Humidity: 53%

Dew Point: 53 °F

Location of MontpelierLocation

Past Weather in Montpelier — Graph

°F

Montpelier Temperature Yesterday

Maximum temperature yesterday: 69 °F (at 3:51 pm)
Minimum temperature yesterday: 50 °F (at 11:51 pm)
Average temperature yesterday: 60 °F

High & Low Weather Summary for the Past Weeks

 TemperatureHumidityPressure
High84 °F (Aug 2, 2:51 pm)100% (Aug 3, 1:51 am)30.29 "Hg (Aug 3, 1:51 am)
Low46 °F (Aug 17, 5:51 am)37% (Aug 2, 3:51 pm)29.82 "Hg (Aug 5, 3:51 pm)
Average64 °F84%30.04 "Hg
* Reported Aug 2 11:51 am — Aug 17 11:51 am, Montpelier. Weather by CustomWeather, © 2017

Note: Actual official high and low records may vary slightly from our data, if they occured in-between our weather recording intervals... More about our weather records

Advertising

Montpelier Weather History for the Previous 24 Hours

Scroll right to see more
 ConditionsComfort  
Time TempWeatherWind HumidityBarometerVisibility
11:51 am
Thu, Aug 17
69 °FSunny.5 mph57%30.10 "Hg10 mi
10:51 am67 °FSunny.8 mph61%30.11 "Hg10 mi
9:51 am65 °FSunny.No wind63%30.11 "Hg10 mi
8:51 am59 °FSunny.No wind87%30.12 "Hg10 mi
7:51 am52 °FPassing clouds.No wind93%30.11 "Hg10 mi
6:51 am48 °FPassing clouds.No wind100%30.10 "Hg10 mi
5:51 am46 °FClear.No wind100%30.10 "Hg10 mi
4:51 am47 °FClear.No wind97%30.09 "Hg10 mi
3:51 am47 °FClear.No wind97%30.09 "Hg10 mi
2:51 am48 °FClear.5 mph96%30.10 "Hg10 mi
1:51 am50 °FClear.5 mph89%30.10 "Hg10 mi
12:51 am53 °FClear.3 mph83%30.10 "Hg10 mi
11:51 pm
Wed, Aug 16
50 °FClear.3 mph93%30.10 "Hg10 mi
10:51 pm55 °FClear.No wind80%30.09 "Hg10 mi
9:51 pm53 °FClear.No wind83%30.10 "Hg10 mi
8:51 pm58 °FClear.No wind72%30.08 "Hg10 mi
7:51 pm60 °FSunny.7 mph67%30.06 "Hg10 mi
6:51 pm65 °FSunny.8 mph52%30.05 "Hg10 mi
5:51 pm67 °FSunny.10 mph49%30.04 "Hg10 mi
4:51 pm68 °FSunny.9 mph49%30.04 "Hg10 mi
3:51 pm69 °FSunny.12 mph49%30.04 "Hg10 mi
2:51 pm68 °FPassing clouds.10 mph51%30.06 "Hg10 mi
1:51 pm68 °FSunny.10 mph51%30.06 "Hg10 mi
Weather by CustomWeather, © 2017

See weather overviewHow to use our weather pages